Weather History for Bartlesville, OK

Change the Weather History Date:

Friday, January 18, 2013

  Actual Average Record
Temperature  
Mean Temperature 39 °F -  
Max Temperature 59 °F 47 °F - (-1)
Min Temperature 19 °F 23 °F - (-1)
Degree Days  
Heating Degree Days 26    
Moisture  
Dew Point 26 °F    
Average Humidity 61    
Maximum Humidity 96    
Minimum Humidity 32    
Precipitation  
Precipitation 0.00 in - - ()
Sea Level Pressure  
Sea Level Pressure 30.34 in    
Wind  
Wind Speed 5 mph (SSW)    
Max Wind Speed 18 mph    
Max Gust Speed 25 mph    
Visibility 10 miles    
Events      
Averages and records for this station are not official NWS values.
T = Trace of Precipitation, MM = Missing Value Source: NWS Daily Summary

Daily Weather History Graph

Daily Weather History Graph

Search for Another Location

Airport:

Trip Planner

Search our weather history database for the weather conditions in past years. The results will help you decide how hot, cold, wet, or windy it might be!

Date:

Astronomy

Jan. 18, 2013 Rise Set
Actual Time 7:34 AM CST 5:34 PM CST
Civil Twilight 7:06 AM CST 6:03 PM CST
Nautical Twilight 6:34 AM CST 6:34 PM CST
Astronomical Twilight 6:03 AM CST 7:05 PM CST
Moon 11:26 AM CST (1/18) 12:14 AM CST (1/18)
Length of Visible Light 10h 56m
Length of Day
10h 00m
Waxing Crescent, 47% of the Moon is Illuminated
Jan 18
Waxing Crescent
Jan 18
First Quarter
Jan 26
Full
Feb 3
Last Quarter
Feb 10
New

Hourly Weather History & Observations

Time (CST) Temp. Windchill Dew Point Humidity Pressure Visibility Wind Dir Wind Speed Gust Speed Precip Events Conditions
12:53 AM 21.9 °F - 19.9 °F 92% 30.50 in 10.0 mi Calm Calm - N/A   Clear
1:53 AM 21.0 °F - 19.0 °F 92% 30.50 in 10.0 mi Calm Calm - N/A   Clear
2:53 AM 21.0 °F - 19.0 °F 92% 30.50 in 10.0 mi Calm Calm - N/A   Clear
3:53 AM 21.0 °F 16.2 °F 19.0 °F 92% 30.48 in 10.0 mi South 3.5 mph - N/A   Clear
4:53 AM 19.9 °F - 19.0 °F 96% 30.45 in 10.0 mi Calm Calm - N/A   Clear
5:53 AM 21.0 °F - 19.0 °F 92% 30.44 in 10.0 mi Calm Calm - N/A   Clear
6:53 AM 21.9 °F - 19.9 °F 92% 30.44 in 10.0 mi Calm Calm - N/A   Clear
7:53 AM 21.9 °F - 21.0 °F 96% 30.43 in 9.0 mi Calm Calm - N/A   Clear
8:53 AM 39.0 °F 35.7 °F 30.0 °F 70% 30.43 in 10.0 mi South 4.6 mph - N/A   Clear
9:53 AM 46.0 °F 39.9 °F 28.9 °F 51% 30.43 in 10.0 mi South 13.8 mph 23.0 mph N/A   Clear
10:53 AM 51.1 °F - 28.9 °F 43% 30.40 in 10.0 mi SSW 17.3 mph 25.3 mph N/A   Clear
11:53 AM 55.0 °F - 28.9 °F 37% 30.36 in 10.0 mi SSW 18.4 mph 25.3 mph N/A   Clear
12:53 PM 57.0 °F - 28.9 °F 34% 30.31 in 10.0 mi SSW 12.7 mph 21.9 mph N/A   Clear
1:53 PM 59.0 °F - 30.0 °F 33% 30.27 in 10.0 mi South 10.4 mph 24.2 mph N/A   Clear
2:53 PM 57.9 °F - 28.9 °F 33% 30.25 in 10.0 mi South 16.1 mph 23.0 mph N/A   Clear
3:53 PM 59.0 °F - 28.9 °F 32% 30.23 in 10.0 mi SSW 13.8 mph 21.9 mph N/A   Clear
4:53 PM 57.0 °F - 28.9 °F 34% 30.22 in 10.0 mi SSW 11.5 mph 23.0 mph N/A   Clear
5:53 PM 52.0 °F - 28.9 °F 41% 30.20 in 10.0 mi South 8.1 mph - N/A   Clear
6:53 PM 48.9 °F - 30.0 °F 48% 30.21 in 10.0 mi South 8.1 mph - N/A   Clear
7:53 PM 48.0 °F - 30.0 °F 50% 30.21 in 10.0 mi South 6.9 mph - N/A   Clear
8:53 PM 46.9 °F - 30.0 °F 52% 30.20 in 10.0 mi South 8.1 mph - N/A   Clear
9:53 PM 46.9 °F - 30.9 °F 54% 30.18 in 10.0 mi SSW 8.1 mph - N/A   Clear
10:53 PM 48.0 °F - 30.9 °F 52% 30.17 in 10.0 mi SSW 10.4 mph - N/A   Clear